Regional Weather Roundup
Issued by NWS

Home | Current Version | Previous Version | Text Only | Print | Product List | Glossary Off
Versions: 1 2 3 4 5 6 7 8 9 10 11 12 13 14 15 16 17 18 19 20 21 22 23 24 25 26 27 28 29 30 31 32 33 34 35 36 37 38 39 40 41 42 43 44 45 46 47 48 49 50

000
ASUS43 KMKX 261600
RWRWI

WISCONSIN REGIONAL WEATHER ROUNDUP
NATIONAL WEATHER SERVICE MILWAUKEE/SULLIVAN WI
1100 AM CDT MON JUN 26 2017

NOTE: "FAIR" INDICATES FEW OR NO CLOUDS BELOW 12,000 FEET WITH NO
SIGNIFICANT WEATHER AND/OR OBSTRUCTIONS TO VISIBILITY.

WIZ001-002-006>008-014>016-023>028-261700-
NORTHWEST WISCONSIN

CITY           SKY/WX    TMP DP  RH WIND       PRES   REMARKS
SUPERIOR ARPT  NOT AVBL
ASHLAND        MOSUNNY   58  48  69 VRB5      30.13S
HAYWARD        PTSUNNY   57  45  64 VRB5      30.14S
SIREN          MOSUNNY   62  45  54 NW13      30.15F
CUMBERLAND     PTSUNNY   57  45  62 NW14      30.16R
RICE LAKE      MOSUNNY   59  46  62 NW8       30.16S
CHETEK         MOSUNNY   59  49  67 N6        30.15S
LADYSMITH      CLOUDY    55  47  73 NW10      30.15S
EAU CLAIRE     NOT AVBL
MENOMONIE      MOSUNNY   62  46  56 NW10G18   30.16R
NEW RICHMOND   MOSUNNY   62  44  50 N10       30.17S
OSCEOLA        MOSUNNY   61  45  55 N9        30.20S
$$

WIZ003>005-009-010-017-018-261700-
NORTH CENTRAL WISCONSIN

CITY           SKY/WX    TMP DP  RH WIND       PRES   REMARKS
MANITOWISH WTR LGT RAIN  48  48 100 N9        30.09R
ARBOR VITAE    CLOUDY    52  49  91 N17       30.06S
WOODRUFF       CLOUDY    52  49  91 N17       30.06S
RHINELANDER    LGT RAIN  50  48  93 NW10      30.06S
EAGLE RIVER    DRIZZLE   49  48  97 N10       30.05R
LAND O LAKES   CLOUDY    49  47  93 N10G20    30.07R FOG
PHILLIPS       CLOUDY    51  46  85 N9        30.11R
TOMAHAWK       NOT AVBL
MEDFORD        DRIZZLE   50  45  83 NW16G22   30.10S
MERRILL        CLOUDY    52  46  82 N13G21    30.07F
$$

WIZ029-030-035-036-043>047-261700-
CENTRAL WISCONSIN

CITY           SKY/WX    TMP DP  RH WIND       PRES   REMARKS
WAUSAU         CLOUDY    52  44  74 NW14G25   30.06S
MOSINEE        CLOUDY    54  45  71 NW13G22   30.09R
MARSHFIELD     PTSUNNY   56  45  66 NW16G26   30.09F
STEVENS POINT  CLOUDY    52  42  68 NW14G20   30.08S
WAUPACA        CLOUDY    57  44  60 W10G20    30.07S
WAUTOMA        LGT RAIN  54  45  71 W12G21    30.10R
WISC RAPIDS    CLOUDY    56  45  66 NW18G28   30.10F
CAMP DOUGLAS   NOT AVBL
$$

WIZ011>013-019>022-031-037>040-048>050-261700-
NORTHEAST WISCONSIN

CITY           SKY/WX    TMP DP  RH WIND       PRES   REMARKS
ANTIGO         CLOUDY    50  45  84 NW13G18   30.05S
SHAWANO        CLOUDY    56  44  65 W9G17     30.04S
OCONTO         CLOUDY    55  44  68 NW8G17    30.01S
STURGEON BAY     N/A     55  46  71 W13G20      N/A
GREEN BAY      CLOUDY    56  46  69 NW17G24   30.04S
MANITOWOC      CLOUDY    57  45  62 NW15      30.04R
APPLETON       PTSUNNY   54  39  58 W17G28    30.04S
CLINTONVILLE   CLOUDY    54  43  66 NW14      30.05S
OSHKOSH        PTSUNNY   59  44  57 NW15G25   30.05F
$$

WIZ032>034-041-042-053>061-261700-
SOUTHWEST WISCONSIN

CITY           SKY/WX    TMP DP  RH WIND       PRES   REMARKS
LA CROSSE      MOSUNNY   68  45  43 NW13      30.15S
SPARTA         PTSUNNY   59  45  59 W12       30.14F
VIROQUA        MOSUNNY   59  47  63 NW9G16    30.15S
BOSCOBEL       PTSUNNY   65  46  50 NW10      30.15S
PRAIRIE DU CHI SUNNY     65  44  48 NW13      30.15S
PLATTEVILLE    SUNNY     65  45  49 NW14      30.14S
$$

WIZ056-057-062-063-064-067-068-261700-
SOUTH CENTRAL WISCONSIN

CITY           SKY/WX    TMP DP  RH WIND       PRES   REMARKS
REEDSBURG      MOSUNNY   60  45  58 NW12G17   30.12S
BARABOO/DELLS  PTSUNNY   60  42  51 NW15      30.11S
LONE ROCK      NOT AVBL
MINERAL POINT  SUNNY     63  46  55 NW12G17   30.13F
MADISON        PTSUNNY   61  47  59 W10       30.10S
MIDDLETON      MOSUNNY   62  48  60 NW12G18   30.11F
WATERTOWN      NOT AVBL
MONROE         MOSUNNY   63  43  48 NW12G21   30.12S
JANESVILLE     MOSUNNY   66  45  45 NW16G23   30.11R
$$

WIZ051-052-058>065-066-070>072-261700-
SOUTHEAST WISCONSIN

CITY           SKY/WX    TMP DP  RH WIND       PRES   REMARKS
MILWAUKEE      PTSUNNY   65  46  50 W12G23    30.07S
WAUKESHA       MOSUNNY   61  46  59 W14G23    30.09F
MILWAUKEE/TIMM PTSUNNY   63  41  45 W13G23    30.07F
RACINE         MOSUNNY   66  44  45 W15G24    30.08F
KENOSHA        PTSUNNY   66  46  48 W14       30.08S
FOND DU LAC    PTSUNNY   60  43  53 W18G26    30.06S
SHEBOYGAN      PTSUNNY   61  48  62 W17G28    30.04S
WEST BEND      MOSUNNY   59  43  55 W14G23    30.06S
JUNEAU           N/A     59  44  58 W7G17     30.09S
$$

LSZ147-162-261700-
LAKE SUPERIOR

STATION/POSITION TIME  TEMP    WIND        PRES    WAVE
                       AIR SEA DIR/SP/G            HT/PER
                 (UTC) (F)     (DEG/KT/KT) (MB)    (FT/S)
W MID LAKE BUOY  1450   44 39  270/ 12/ 14 1018.7R   1/ 3
DEVILS ISLAND    1500   51     240/ 13/ 15 1019.7R
SAXON HARBOR     1540   54     320/  5/  8 1019.6R
$$

LMZ867-665-643>646-261700-
LAKE MICHIGAN

STATION/POSITION TIME  TEMP    WIND        PRES    WAVE
                       AIR SEA DIR/SP/G            HT/PER
                 (UTC) (F)     (DEG/KT/KT) (MB)    (FT/S)
CHAMBERS ISLAND  1540   56     250/  7/ 12 1015.2R
S GREEN BAY BUOY 1530   56     280/ 12/ 14 1015.7F
N MID LAKE BUOY  1450   53 55  340/  6/  6 1015.2R   2/ 4
NORTHPORT PIER   1540   56     300/  7/ 13 1014.9S
KEWAUNEE LAKESHO 1530   56     270/ 10/ 18 1015.9S
SHEBOYGAN LAKESH 1500   57     290/ 13/ 17 1017.1F
PORT WASHINGTON  1530   64     290/ 10/ 18 1018.3S
ATWATER BUOY     1409   59 57  270/ 12/ 16 1018.2F
MILWAUKEE LAKESH 1550   62     290/ 16/ 21   N/A
S MID LAKE BUOY  1450   60 61  300/ 12/ 14 1018.4F   3/ 4
KENOSHA   LAKESH 1500   63     270/  8/ 15 1018.3
$$

TC  - TEMPERATURE IN CELSIUS
VSB - VISIBILITY IN STATUTE MILES
WCI - WIND CHILL INDEX
HX  - HEAT INDEX





USA.gov is the U.S. government's official web portal to all federal, state and local government web resources and services.